Falconara, Italy

9:28 AM CET on January 17, 2018 (GMT +0100)
Falconara Mil

Weather History for LIPY - December, 2012

Change the Weather History Date:

Monday, December 31, 2012

  Actual Average Record
Temperature  
Mean Temperature 38 °F -  
Max Temperature 46 °F 46 °F 53 °F (1998)
Min Temperature 30 °F 34 °F 23 °F (1996)
Degree Days  
Heating Degree Days 27    
Moisture  
Dew Point 33 °F    
Average Humidity 89    
Maximum Humidity 100    
Minimum Humidity 70    
Precipitation  
Precipitation 0.00 in 0.07 in - ()
Sea Level Pressure  
Sea Level Pressure 30.27 in    
Wind  
Wind Speed 4 mph ()    
Max Wind Speed 8 mph    
Max Gust Speed -    
Visibility 4.8 miles    
Events      
Averages and records for this station are not official NWS values.
T = Trace of Precipitation, MM = Missing Value Source: Averaged Metar Reports

Daily Weather History Graph

Daily Weather History Graph

Search for Another Location

Airport or City:

Trip Planner

Search our weather history database for the weather conditions in past years. The results will help you decide how hot, cold, wet, or windy it might be!

Date:

Astronomy

Dec. 31, 2012 Rise Set
Actual Time 7:39 AM CET 4:39 PM CET
Civil Twilight 7:07 AM CET 5:12 PM CET
Nautical Twilight 6:31 AM CET 5:48 PM CET
Astronomical Twilight 5:56 AM CET 6:23 PM CET
Moon 7:59 PM CET (12/31) 9:06 AM CET (12/31)
Length of Visible Light 10h 05m
Length of Day
8h 59m
Waning Gibbous, 92% of the Moon is Illuminated
Dec 31
Waning Gibbous
Jan 5
Last Quarter
Jan 11
New
Jan 19
First Quarter
Jan 27
Full

Hourly Weather History & Observations

Time (CET) Temp. Windchill Dew Point Humidity Pressure Visibility Wind Dir Wind Speed Gust Speed Precip Events Conditions
12:50 AM 32.0 °F 28.7 °F 32.0 °F 100% 30.30 in - SSW 3.5 mph - N/A   Clear
1:50 AM 32.0 °F 28.7 °F 30.2 °F 93% 30.30 in - SSW 3.5 mph - N/A   Clear
2:50 AM 32.0 °F 27.5 °F 30.2 °F 93% 30.30 in - SSW 4.6 mph - N/A   Clear
3:50 AM 30.2 °F 26.7 °F 30.2 °F 100% 30.30 in - South 3.5 mph - N/A   Clear
4:50 AM 32.0 °F 26.4 °F 30.2 °F 93% 30.30 in - South 5.8 mph - N/A   Clear
5:50 AM 30.2 °F 26.7 °F 30.2 °F 100% 30.30 in - SSW 3.5 mph - N/A   Clear
6:50 AM 30.2 °F 24.3 °F 30.2 °F 100% 30.33 in - South 5.8 mph - N/A   Clear
7:50 AM 30.2 °F 25.4 °F 28.4 °F 93% 30.33 in - SSW 4.6 mph - N/A   Clear
8:50 AM 30.2 °F 26.7 °F 28.4 °F 93% 30.33 in - SSW 3.5 mph - N/A   Clear
9:50 AM 37.4 °F 33.8 °F 33.8 °F 87% 30.33 in - SSW 4.6 mph - N/A   Clear
10:50 AM 42.8 °F 41.1 °F 33.8 °F 70% 30.33 in - SSW 3.5 mph - N/A   Clear
11:50 AM 44.6 °F 43.1 °F 35.6 °F 71% 30.33 in - West 3.5 mph - N/A   Clear
12:50 PM 46.4 °F 42.4 °F 37.4 °F 71% 30.30 in 5.6 mi NNW 8.1 mph - N/A   Unknown
1:50 PM 46.4 °F 42.4 °F 39.2 °F 76% 30.27 in 5.0 mi NW 8.1 mph - N/A   Unknown
2:50 PM 46.4 °F 43.5 °F 39.2 °F 76% 30.24 in 4.3 mi NW 5.8 mph - N/A   Unknown
3:50 PM 46.4 °F 45.2 °F 37.4 °F 71% 30.24 in 4.3 mi NNW 3.5 mph - N/A   Unknown
4:50 PM 41.0 °F 39.0 °F 37.4 °F 87% 30.24 in 3.7 mi NNW 3.5 mph - N/A   Unknown
5:50 PM 41.0 °F - 37.4 °F 87% 30.21 in 5.0 mi Variable 1.2 mph - N/A   Unknown
6:50 PM 37.4 °F 34.9 °F 35.6 °F 93% 30.21 in 5.0 mi SSE 3.5 mph - N/A   Unknown
7:50 PM 35.6 °F 31.7 °F 35.6 °F 100% 30.21 in - South 4.6 mph - N/A   Clear
8:50 PM 33.8 °F 30.8 °F 33.8 °F 100% 30.18 in 5.0 mi South 3.5 mph - N/A   Unknown
9:50 PM 32.0 °F 27.5 °F 32.0 °F 100% 30.18 in 5.0 mi SSW 4.6 mph - N/A   Unknown
10:50 PM 32.0 °F 28.7 °F 32.0 °F 100% 30.18 in 5.0 mi SSW 3.5 mph - N/A   Unknown
11:50 PM 32.0 °F 28.7 °F 30.2 °F 93% 30.18 in 5.0 mi South 3.5 mph - N/A   Unknown